Weather History for OTBD - November, 2010

Change the Weather History Date:

Sunday, November 7, 2010

  Actual Average Record
Temperature  
Mean Temperature 83 °F -  
Max Temperature 90 °F 83 °F 98 °F (2006)
Min Temperature 76 °F 65 °F 68 °F (1996)
Cooling Degree Days 18    
Growing Degree Days 33 (Base 50)    
Moisture  
Dew Point 64 °F    
Average Humidity 56    
Maximum Humidity 74    
Minimum Humidity 22    
Precipitation  
Precipitation 0.00 in 0.01 in - ()
Sea Level Pressure  
Sea Level Pressure 29.93 in    
Wind  
Wind Speed 5 mph ()    
Max Wind Speed 10 mph    
Max Gust Speed -    
Visibility 6.5 miles    
Events      
Averages and records for this station are not official NWS values.
T = Trace of Precipitation, MM = Missing Value Source: Averaged Metar Reports

Daily Weather History Graph

Daily Weather History Graph

Search for Another Location

Airport or City:

Trip Planner

Search our weather history database for the weather conditions in past years. The results will help you decide how hot, cold, wet, or windy it might be!

Date:

Astronomy

Nov. 07, 2010 Rise Set
Actual Time 5:45 AM AST 4:49 PM AST
Civil Twilight 5:21 AM AST 5:13 PM AST
Nautical Twilight 4:53 AM AST 5:40 PM AST
Astronomical Twilight 4:26 AM AST 6:07 PM AST
Moon 6:50 AM AST (11/7) 5:42 PM AST (11/7)
Length of Visible Light 11h 52m
Length of Day
11h 04m
New Moon, 2% of the Moon is Illuminated
Nov 7
New Moon
Nov 13
First Quarter
Nov 21
Full
Nov 28
Last Quarter
Dec 5
New

Hourly Weather History & Observations

Time (AST) Temp. Heat Index Dew Point Humidity Pressure Visibility Wind Dir Wind Speed Gust Speed Precip Events Conditions
12:00 AM 78.8 °F - 64.4 °F 61% 29.89 in 6.2 mi NW 5.8 mph - N/A   Partly Cloudy
12:30 AM 78.8 °F - 64.4 °F 61% 29.89 in 6.2 mi NNW 8.1 mph - N/A   Partly Cloudy
1:00 AM 78.8 °F - 64.4 °F 61% 29.92 in 6.2 mi NNW 5.8 mph - N/A   Partly Cloudy
1:30 AM 78.8 °F - 64.4 °F 61% 29.92 in 6.2 mi NW 4.6 mph - N/A   Partly Cloudy
2:00 AM - - - N/A% 29.89 in - NNW 6.9 mph - N/A   Partly Cloudy
2:30 AM 78.8 °F - 66.2 °F 65% 29.89 in 6.2 mi NNW 8.1 mph - N/A   Partly Cloudy
3:00 AM 78 °F - 67 °F 61% 29.92 in 10 mi NNW 5.8 mph - -  
3:00 AM 78.8 °F - 59.0 °F 51% - - NNW 5.8 mph - N/A   Clear
3:30 AM 78.8 °F - 66.2 °F 65% 29.92 in 6.2 mi NNW 4.6 mph - N/A   Partly Cloudy
4:00 AM 78.8 °F - 66.2 °F 65% 29.92 in 6.2 mi NW 4.6 mph - N/A   Partly Cloudy
4:30 AM 77.0 °F - 68.0 °F 74% 29.92 in 6.2 mi NW 3.5 mph - N/A   Partly Cloudy
5:00 AM 77.0 °F - 68.0 °F 74% 29.92 in 6.2 mi NW 4.6 mph - N/A   Partly Cloudy
5:30 AM 77.0 °F - 68.0 °F 74% 29.92 in 6.2 mi NNW 5.8 mph - N/A   Partly Cloudy
6:00 AM 77.0 °F - 68.0 °F 74% 29.95 in 6.2 mi NNW 5.8 mph - N/A   Partly Cloudy
6:30 AM 78.8 °F - 68.0 °F 69% 29.95 in 6.2 mi NW 3.5 mph - N/A   Partly Cloudy
7:00 AM 80.6 °F 83.2 °F 68.0 °F 65% 29.98 in 6.2 mi NNW 4.6 mph - N/A   Partly Cloudy
7:30 AM 80.6 °F 83.2 °F 68.0 °F 65% 29.98 in 6.2 mi Variable 2.3 mph - N/A   Partly Cloudy
8:00 AM 82.4 °F 85.4 °F 68.0 °F 62% 29.98 in 6.2 mi Variable 2.3 mph - N/A   Partly Cloudy
8:30 AM 84.2 °F 85.6 °F 64.4 °F 51% 29.98 in 6.2 mi Variable 2.3 mph - N/A   Partly Cloudy
9:00 AM 86 °F - 65 °F 39% 30.00 in 9 mi ENE 3.5 mph - -   Scattered Clouds
9:00 AM 86.0 °F 87.3 °F 64.4 °F 48% 29.98 in 6.2 mi ENE 3.5 mph - N/A   Partly Cloudy
9:30 AM 86.0 °F 86.1 °F 60.8 °F 43% 29.98 in 6.2 mi East 6.9 mph - N/A   Partly Cloudy
10:00 AM 87.8 °F 87.6 °F 60.8 °F 40% 29.98 in 6.2 mi East 6.9 mph - N/A   Partly Cloudy
10:30 AM 87.8 °F 88.5 °F 62.6 °F 43% 29.98 in 6.2 mi ESE 6.9 mph - N/A   Partly Cloudy
11:00 AM 87.8 °F 88.5 °F 62.6 °F 43% 29.95 in 6.2 mi SSE 8.1 mph - N/A   Partly Cloudy
11:30 AM 87.8 °F 87.6 °F 60.8 °F 40% 29.95 in 6.2 mi ESE 9.2 mph - N/A   Partly Cloudy
12:00 PM 89.6 °F - 51.8 °F 27% 29.92 in 6.2 mi SE 8.1 mph - N/A   Partly Cloudy
12:30 PM 89.6 °F 87.3 °F 53.6 °F 29% 29.89 in 6.2 mi ESE 8.1 mph - N/A   Partly Cloudy
1:00 PM 87.8 °F 85.7 °F 53.6 °F 31% 29.89 in 6.2 mi East 8.1 mph - N/A   Partly Cloudy
1:30 PM 87.8 °F 86.5 °F 57.2 °F 35% 29.89 in 6.2 mi East 6.9 mph - N/A   Partly Cloudy
2:00 PM 87.8 °F 85.7 °F 53.6 °F 31% 29.89 in 6.2 mi ESE 5.8 mph - N/A   Partly Cloudy
2:30 PM 87.8 °F 86.5 °F 57.2 °F 35% 29.89 in 6.2 mi East 5.8 mph - N/A   Partly Cloudy
3:00 PM 88 °F - 55 °F 22% 29.89 in 10 mi East 8.1 mph - -   Scattered Clouds
3:00 PM - - - N/A% 29.89 in 6.2 mi East 8.1 mph - N/A   Unknown
3:30 PM 87.8 °F 86.5 °F 57.2 °F 35% 29.89 in 6.2 mi East 6.9 mph - N/A   Partly Cloudy
4:00 PM 84.2 °F 85.0 °F 62.6 °F 48% 29.89 in 6.2 mi NNE 10.4 mph - N/A   Partly Cloudy
4:30 PM 84.2 °F 85.6 °F 64.4 °F 51% 29.89 in 6.2 mi NNE 6.9 mph - N/A   Partly Cloudy
5:00 PM 84.2 °F 85.6 °F 64.4 °F 51% 29.89 in 6.2 mi NE 6.9 mph - N/A   Partly Cloudy
5:30 PM 84.2 °F 85.0 °F 62.6 °F 48% 29.92 in - NE 5.8 mph - N/A   Clear
6:00 PM 82.4 °F 85.4 °F 68.0 °F 62% 29.92 in - NNE 6.9 mph - N/A   Clear
6:30 PM 82.4 °F 85.4 °F 68.0 °F 62% 29.92 in - NNE 6.9 mph - N/A   Clear
7:00 PM 82.4 °F 86.3 °F 69.8 °F 66% 29.92 in - North 4.6 mph - N/A   Clear
7:30 PM 82.4 °F 86.3 °F 69.8 °F 66% 29.95 in - North 4.6 mph - N/A   Clear
8:00 PM 80.6 °F 83.9 °F 69.8 °F 70% 29.95 in - North - - N/A   Unknown
8:30 PM 80.6 °F 83.9 °F 69.8 °F 70% 29.95 in - North 4.6 mph - N/A   Clear
9:00 PM 81 °F - 70 °F 61% 29.96 in 7 mi North 3.5 mph - -   Clear
9:00 PM 80.6 °F 83.9 °F 69.8 °F 70% 29.95 in - North 3.5 mph - N/A   Clear
9:30 PM 80.6 °F 83.9 °F 69.8 °F 70% 29.95 in 6.2 mi North 3.5 mph - N/A   Partly Cloudy
10:00 PM 80.6 °F 83.9 °F 69.8 °F 70% 29.95 in 6.2 mi North 4.6 mph - N/A   Partly Cloudy
10:30 PM 78.8 °F - 69.8 °F 74% 29.95 in - North 3.5 mph - N/A   Clear
11:00 PM 78.8 °F - 69.8 °F 74% 29.95 in 6.2 mi North 3.5 mph - N/A   Partly Cloudy
11:30 PM 78.8 °F - 69.8 °F 74% 29.92 in 6.2 mi Variable 2.3 mph - N/A   Partly Cloudy